Change the Weather History Date:

Monday, October 7, 2013

  Actual Average (KAMA) Record (KAMA)
Temperature  
Mean Temperature 59 °F 61 °F  
Max Temperature 82 °F 75 °F 94 °F (1979)
Min Temperature 36 °F 48 °F 29 °F (1952)
Degree Days  
Heating Degree Days 6 5  
Month to date heating degree days 31  
Since 1 July heating degree days 75  
Cooling Degree Days 0 1  
Month to date cooling degree days 13  
Year to date cooling degree days 1383  
Growing Degree Days 9 (Base 50)    
Moisture  
Dew Point 24 °F    
Average Humidity 33    
Maximum Humidity 68    
Minimum Humidity 10    
Precipitation  
Precipitation 0.00 in 0.06 in 1.24 in (1946)
Month to date precipitation 0.43  
Year to date precipitation 17.62  
Snow  
Snow 0.00 in 0.00 in T in (2000)
Month to date snowfall 0.0  
Since 1 July snowfall T  
Since 1 September snowfall T  
Snow Depth -    
Sea Level Pressure  
Sea Level Pressure 30.20 in    
Wind  
Wind Speed 7 mph (SW)    
Max Wind Speed 16 mph    
Max Gust Speed 23 mph    
Visibility 10 miles    
Events      
T = Trace of Precipitation, MM = Missing Value Source: NWS Daily Summary

Daily Weather History Graph

Daily Weather History Graph

Search for Another Location

Airport or City:

Trip Planner

Search our weather history database for the weather conditions in past years. The results will help you decide how hot, cold, wet, or windy it might be!

Date:

Astronomy

Oct. 07, 2013 Rise Set
Actual Time 7:48 AM CDT 7:24 PM CDT
Civil Twilight 7:23 AM CDT 7:49 PM CDT
Nautical Twilight 6:54 AM CDT 8:19 PM CDT
Astronomical Twilight 6:25 AM CDT 8:48 PM CDT
Moon 10:33 AM CDT (10/7) 9:19 PM CDT (10/7)
Length of Visible Light 12h 26m
Length of Day
11h 35m
Waxing Crescent, 9% of the Moon is Illuminated
Oct 7
Waxing Crescent
Oct 11
First Quarter
Oct 18
Full
Oct 26
Last Quarter
Nov 3
New

Hourly Weather History & Observations

Time (CDT) Temp. Windchill Dew Point Humidity Pressure Visibility Wind Dir Wind Speed Gust Speed Precip Events Conditions
12:15 AM 45.5 °F 42.5 °F 27.3 °F 49% 30.26 in 10.0 mi NW 5.8 mph - N/A   Clear
12:35 AM 45.5 °F 42.5 °F 22.8 °F 41% 30.25 in 10.0 mi NNW 5.8 mph - N/A   Clear
12:55 AM 45.7 °F - 23.7 °F 42% 30.25 in 10.0 mi Calm Calm - N/A   Clear
1:15 AM 45.9 °F 41.2 °F 22.6 °F 40% 30.24 in 10.0 mi North 9.2 mph - N/A   Clear
1:35 AM 45.5 °F 43.2 °F 22.8 °F 41% 30.24 in 10.0 mi West 4.6 mph - N/A   Clear
1:55 AM 43.9 °F 40.5 °F 26.8 °F 51% 30.24 in 10.0 mi West 5.8 mph - N/A   Clear
2:15 AM 42.4 °F 38.8 °F 28.4 °F 58% 30.24 in 10.0 mi West 5.8 mph - N/A   Clear
2:35 AM 42.6 °F 38.4 °F 27.5 °F 55% 30.24 in 10.0 mi WSW 6.9 mph - N/A   Clear
2:55 AM 41.9 °F 37.5 °F 27.5 °F 57% 30.24 in 10.0 mi West 6.9 mph - N/A   Clear
3:15 AM 41.7 °F 37.3 °F 27.1 °F 56% 30.24 in 10.0 mi West 6.9 mph - N/A   Clear
3:35 AM 41.4 °F 38.4 °F 25.9 °F 54% 30.24 in 10.0 mi West 4.6 mph - N/A   Clear
3:55 AM 41.0 °F 36.4 °F 25.7 °F 55% 30.24 in 10.0 mi West 6.9 mph - N/A   Clear
4:15 AM 39.6 °F 35.4 °F 26.2 °F 59% 30.24 in 10.0 mi West 5.8 mph - N/A   Clear
4:35 AM 39.4 °F 36.1 °F 27.3 °F 62% 30.24 in 10.0 mi WSW 4.6 mph - N/A   Clear
4:55 AM 40.1 °F 36.9 °F 25.2 °F 55% 30.24 in 10.0 mi West 4.6 mph - N/A   Clear
5:15 AM 39.2 °F 34.2 °F 24.3 °F 55% 30.24 in 10.0 mi WNW 6.9 mph - N/A   Clear
5:35 AM 39.4 °F 36.1 °F 24.3 °F 55% 30.24 in 10.0 mi West 4.6 mph - N/A   Clear
5:55 AM 38.5 °F 35.0 °F 28.0 °F 66% 30.24 in 10.0 mi West 4.6 mph - N/A   Clear
6:15 AM 37.0 °F 32.4 °F 26.6 °F 66% 30.24 in 10.0 mi West 5.8 mph - N/A   Clear
6:35 AM 36.7 °F 32.0 °F 27.1 °F 68% 30.25 in 10.0 mi WSW 5.8 mph - N/A   Clear
6:55 AM 37.6 °F 33.1 °F 26.6 °F 65% 30.26 in 10.0 mi WSW 5.8 mph - N/A   Clear
7:15 AM 37.4 °F 33.8 °F 26.4 °F 65% 30.26 in 10.0 mi West 4.6 mph - N/A   Clear
7:35 AM 37.2 °F 32.6 °F 25.0 °F 61% 30.26 in 7.0 mi WSW 5.8 mph - N/A   Clear
7:55 AM 37.4 °F 31.4 °F 25.7 °F 63% 30.26 in 10.0 mi WSW 8.1 mph - N/A   Clear
8:15 AM 38.3 °F 34.8 °F 25.7 °F 61% 30.26 in 10.0 mi West 4.6 mph - N/A   Clear
8:35 AM 41.7 °F 39.8 °F 25.9 °F 53% 30.27 in 10.0 mi West 3.5 mph - N/A   Clear
8:55 AM 45.1 °F - 26.1 °F 47% 30.27 in 10.0 mi Calm Calm - N/A   Clear
9:15 AM 50.0 °F - 26.6 °F 40% 30.27 in 10.0 mi Calm Calm - N/A   Clear
9:35 AM 54.7 °F - 26.4 °F 34% 30.27 in 10.0 mi West 3.5 mph - N/A   Clear
9:55 AM 58.6 °F - 26.8 °F 30% 30.27 in 10.0 mi WSW 5.8 mph - N/A   Clear
10:15 AM 63.3 °F - 26.8 °F 25% 30.27 in 7.0 mi SW 4.6 mph - N/A   Clear
10:35 AM 67.1 °F - 26.8 °F 22% 30.27 in 10.0 mi SW 4.6 mph - N/A   Clear
10:55 AM 68.5 °F - 27.1 °F 21% 30.27 in 10.0 mi SW 5.8 mph - N/A   Clear
11:15 AM 70.0 °F - 27.5 °F 20% 30.27 in 10.0 mi SSW 5.8 mph - N/A   Clear
11:35 AM 71.8 °F - 26.1 °F 18% 30.27 in 10.0 mi SW 6.9 mph - N/A   Clear
11:55 AM 73.2 °F - 23.9 °F 16% 30.26 in 10.0 mi SSW 8.1 mph - N/A   Clear
12:15 PM 74.5 °F - 23.2 °F 15% 30.26 in 10.0 mi SSW 11.5 mph - N/A   Clear
12:35 PM 75.7 °F - 23.7 °F 14% 30.24 in 10.0 mi SW 9.2 mph - N/A   Clear
12:55 PM 76.6 °F - 22.8 °F 13% 30.24 in 10.0 mi SSW 12.7 mph 18.4 mph N/A   Clear
1:15 PM 77.4 °F - 22.8 °F 13% 30.23 in 10.0 mi SSW 9.2 mph 18.4 mph N/A   Clear
1:35 PM 78.1 °F - 21.2 °F 12% 30.22 in 10.0 mi WSW 13.8 mph 19.6 mph N/A   Clear
1:55 PM 78.6 °F - 21.2 °F 12% 30.21 in 10.0 mi SSW 9.2 mph 19.6 mph N/A   Clear
2:15 PM 79.7 °F - 20.7 °F 11% 30.20 in 10.0 mi WSW 11.5 mph 19.6 mph N/A   Clear
2:35 PM 80.1 °F - 21.0 °F 11% 30.18 in 10.0 mi South 12.7 mph 16.1 mph N/A   Clear
2:55 PM 80.8 °F - 20.7 °F 11% 30.17 in 10.0 mi South 13.8 mph 17.3 mph N/A   Clear
3:15 PM 80.6 °F - 20.5 °F 11% 30.17 in 10.0 mi SSW 15.0 mph 20.7 mph N/A   Clear
3:35 PM 81.3 °F - 20.5 °F 10% 30.16 in 10.0 mi SSW 16.1 mph 23.0 mph N/A   Clear
3:55 PM 82.0 °F - 20.3 °F 10% 30.15 in 10.0 mi SW 13.8 mph 19.6 mph N/A   Clear
4:15 PM 81.9 °F - 20.3 °F 10% 30.14 in 10.0 mi SSW 8.1 mph 17.3 mph N/A   Clear
4:35 PM 82.2 °F - 20.8 °F 10% 30.13 in 10.0 mi SSW 12.7 mph 18.4 mph N/A   Clear
4:55 PM 81.7 °F - 20.3 °F 10% 30.13 in 10.0 mi SW 12.7 mph 20.7 mph N/A   Clear
5:15 PM 81.5 °F - 20.3 °F 10% 30.12 in 10.0 mi SSW 12.7 mph 18.4 mph N/A   Clear
5:35 PM 81.5 °F - 20.1 °F 10% 30.12 in 10.0 mi South 15.0 mph 18.4 mph N/A   Clear
5:55 PM 81.0 °F - 20.1 °F 10% 30.11 in 10.0 mi SSW 12.7 mph 19.6 mph N/A   Clear
6:15 PM 80.2 °F - 20.1 °F 11% 30.11 in 10.0 mi SSW 12.7 mph - N/A   Clear
6:35 PM 79.0 °F - 21.2 °F 12% 30.11 in 10.0 mi South 13.8 mph - N/A   Clear
6:55 PM 77.4 °F - 21.2 °F 12% 30.11 in 10.0 mi South 13.8 mph - N/A   Clear
7:15 PM 74.7 °F - 21.7 °F 14% 30.11 in 10.0 mi South 11.5 mph - N/A   Clear
7:35 PM 69.8 °F - 21.2 °F 16% 30.11 in 10.0 mi SSE 8.1 mph - N/A   Clear
7:55 PM 68.2 °F - 22.5 °F 18% 30.11 in 10.0 mi SSE 10.4 mph - N/A   Clear
8:15 PM 68.0 °F - 23.9 °F 19% 30.12 in 10.0 mi SSE 11.5 mph - N/A   Clear
8:35 PM 66.4 °F - 25.0 °F 21% 30.12 in 10.0 mi SSE 11.5 mph - N/A   Clear
8:55 PM 64.4 °F - 26.1 °F 23% 30.12 in 10.0 mi SSE 11.5 mph - N/A   Clear
9:15 PM 63.5 °F - 26.8 °F 25% 30.13 in 10.0 mi SSE 11.5 mph - N/A   Clear
9:35 PM 62.8 °F - 27.3 °F 26% 30.13 in 10.0 mi South 12.7 mph - N/A   Clear
9:55 PM 60.8 °F - 27.1 °F 28% 30.13 in 10.0 mi South 10.4 mph - N/A   Clear
10:15 PM 59.7 °F - 27.5 °F 29% 30.13 in 10.0 mi South 10.4 mph - N/A   Clear
10:35 PM 58.5 °F - 27.3 °F 30% 30.13 in 10.0 mi South 10.4 mph - N/A   Clear
10:55 PM 54.9 °F - 26.4 °F 33% 30.13 in 10.0 mi South 8.1 mph - N/A   Clear
11:15 PM 56.8 °F - 26.6 °F 31% 30.13 in 10.0 mi South 10.4 mph - N/A   Clear
11:35 PM 55.2 °F - 26.2 °F 33% 30.13 in 10.0 mi South 6.9 mph - N/A   Clear
11:55 PM 56.8 °F - 26.6 °F 31% 30.13 in 10.0 mi South 8.1 mph - N/A   Clear